Cloud_Cover
0 0 0 0 0 0 0 0 0 0 0 0 0 0 0 0 0 0 4 0 5 2 2 2 5 4 5 0 0 0 0 0 0 0 9 2 25 100 100 98 100 99 99 100 100 75 100 100 46
2 5 5 2 0 4 0 0 0 0 0 0 0 0 0 0 0 0 4 3 2 6 5 3 5 5 11 67 5 1 0 0 0 10 39 30 15 61 100 100 100 99 100 100 100 100 100 100 100
5 5 5 0 0 0 0 0 0 0 0 0 0 0 0 0 0 0 0 0 8 20 5 5 5 5 5 25 60 8 3 0 0 0 38 56 98 26 20 96 92 100 100 64 100 92 100 99 100
5 0 0 0 0 0 0 0 0 0 0 0 0 0 0 0 0 0 0 0 2 25 7 5 5 29 4 4 20 100 11 5 0 0 34 37 0 13 5 61 100 100 100 100 100 96 100 57 84
0 0 3 0 0 0 0 0 0 0 0 0 0 0 0 0 0 0 3 2 0 22 12 5 5 16 13 4 1 20 90 24 52 1 1 45 6 100 100 9 90 90 100 100 100 100 100 100 98
3 0 0 0 0 0 0 0 0 0 0 0 0 0 0 0 0 0 3 0 0 8 25 8 36 5 5 5 2 1 1 61 94 94 19 70 72 34 100 100 5 74 76 84 99 100 100 100 100
5 3 0 0 0 0 0 0 0 0 0 0 0 0 0 0 0 0 0 0 4 5 27 39 66 8 12 5 5 3 5 0 3 87 98 53 90 74 68 99 99 24 31 8 90 98 64 93 100
6 5 5 2 5 0 0 0 0 0 0 0 0 0 0 0 0 0 3 6 14 34 43 49 50 43 36 5 18 43 5 5 3 2 36 100 88 87 0 93 95 99 48 5 32 24 98 6 88
64 94 52 27 5 5 0 0 0 0 0 0 0 0 0 0 0 0 36 77 72 68 69 53 62 53 47 35 19 40 66 62 7 4 1 10 99 96 93 3 1 76 74 75 48 27 96 100 100
98 98 100 100 73 4 0 0 0 0 0 0 0 0 0 0 0 0 1 54 100 100 100 54 50 54 51 50 38 24 5 44 96 62 6 5 8 98 100 100 38 0 17 63 2 70 38 6 73
100 72 67 100 93 14 3 0 0 0 0 0 0 0 0 0 0 0 0 0 1 27 85 41 30 39 47 54 60 91 65 32 14 78 99 19 5 5 95 91 100 94 0 0 0 0 24 0 0
100 80 89 87 100 78 6 5 5 0 0 0 0 0 0 0 0 0 0 0 0 0 0 0 1 34 39 44 64 97 100 99 63 22 69 85 62 67 57 67 69 83 100 32 0 1 0 0 0
100 100 100 100 65 21 5 5 22 4 0 0 0 0 0 0 0 0 0 0 0 0 0 0 0 12 18 44 54 97 100 100 100 84 36 78 95 89 95 95 85 70 80 70 100 6 1 3 5
100 100 100 100 67 89 79 85 100 74 98 50 30 5 4 4 0 0 0 0 0 0 0 0 0 0 8 16 43 57 99 92 100 100 91 51 86 85 96 100 100 76 94 98 100 100 58 0 2
100 100 100 100 100 100 100 100 100 5 1 5 0 3 1 5 5 5 0 0 0 0 0 0 0 0 6 19 31 34 49 56 56 67 95 92 58 67 92 98 100 100 46 45 89 100 100 99 48
100 100 100 100 100 12 4 76 100 95 32 5 5 5 5 42 73 20 0 0 0 0 0 0 0 0 0 1 23 37 47 40 41 47 55 100 86 35 34 96 100 100 85 99 100 88 95 100 100
100 100 100 100 100 75 80 6 100 100 23 9 34 5 17 81 26 5 5 0 0 0 0 0 0 0 0 0 2 19 17 37 41 51 57 72 91 55 90 92 100 100 99 96 99 100 91 100 100
100 100 100 100 100 100 99 5 85 100 97 74 5 65 100 100 47 5 0 0 0 0 0 0 0 0 0 0 0 0 4 24 34 56 54 42 60 79 70 55 93 99 100 100 100 100 100 100 100
46 100 100 100 100 100 100 100 100 100 100 100 100 100 100 100 26 2 0 0 0 0 0 0 0 0 0 23 20 4 0 0 5 24 9 19 37 60 62 84 83 91 79 100 100 100 100 100 100
82 95 100 100 100 86 99 99 100 100 100 100 100 68 44 5 2 5 3 2 2 0 0 0 0 0 0 0 0 0 0 0 0 0 1 2 33 53 72 54 66 100 90 100 100 100 100 100 100
100 100 100 100 100 82 99 96 100 100 100 100 99 5 0 0 5 5 5 22 24 3 0 0 0 16 89 50 41 34 26 10 2 29 40 49 88 97 83 90 100 97 89 99 100 100 100 100 98
83 99 56 93 97 100 100 99 100 100 100 100 98 19 4 0 6 90 72 10 5 5 5 5 0 0 0 57 100 100 100 100 100 100 100 100 100 100 100 100 97 96 100 100 100 100 100 100 100
100 100 76 66 31 97 93 84 83 100 100 100 100 100 60 5 4 0 5 5 6 6 5 5 0 0 0 0 0 20 38 85 83 57 9 0 0 0 28 65 83 100 100 100 100 100 100 100 100
100 100 100 100 100 95 22 10 60 31 87 100 100 100 87 58 51 14 26 100 83 16 5 5 0 0 0 0 0 0 0 0 0 0 0 0 0 0 0 0 0 29 98 100 100 100 100 100 100
100 100 98 99 100 32 4 20 3 33 5 96 53 64 43 5 5 6 13 45 20 5 5 1 0 0 0 0 0 0 0 0 0 0 0 0 0 0 0 0 5 5 7 26 99 100 100 100 100
100 100 90 41 54 5 5 41 2 10 19 67 100 48 4 33 41 35 6 5 5 5 27 2 0 0 0 0 0 0 0 0 0 0 0 0 0 0 0 4 5 5 5 5 74 99 100 100 100
88 88 98 99 72 44 3 5 42 100 100 100 66 33 5 4 0 4 5 5 8 5 5 1 5 5 5 5 5 5 0 2 3 4 2 4 1 0 0 2 5 5 6 37 29 98 100 100 100
99 93 100 100 99 96 36 5 99 65 34 41 77 45 47 5 0 0 5 56 15 5 40 26 5 73 24 5 4 4 5 5 5 5 5 33 7 6 5 5 2 2 7 38 66 45 94 100 100
100 100 100 100 100 97 88 96 62 5 5 5 6 5 5 5 5 5 2 2 5 5 6 70 65 14 7 5 5 14 9 5 5 5 5 5 6 5 22 19 5 26 100 63 91 98 38 14 44
100 100 100 100 100 100 19 18 2 4 9 5 5 5 5 5 5 5 4 5 5 6 43 49 84 6 7 8 60 76 44 16 5 5 36 37 28 65 99 60 6 5 9 100 99 98 100 100 100